User: anonymous   Login
Location: Unspecified
(0.0000°N, 0.0000°E)
Time: 01:54:57
(UTC+00:00)
Language:

SICRAL 1 - Orbit

View from above orbital plane
View from above orbital plane
View from above satellite
View from above satellite

Ground track
Ground track

The orbit data is extracted from the following two-line orbital elements,

1 26694U 01005A   17093.56312578 0.00000000  00000-0  00000-0 0    03
2 26694   7.1829  51.0337 0005021 322.3208  37.6887  1.00270000    02
Epoch (UTC): 03 April 2017 13:30:54
Eccentricity: 0.0005021
inclination: 7.1829°
perigee height: 35765 km
apogee height: 35808 km
right ascension of ascending node: 51.0337°
argument of perigee: 322.3208°
revolutions per day: 1.00270000
mean anomaly at epoch: 37.6887°
orbit number at epoch: 0

The dashed part of the orbit path shows where the satellite is in the earth's shadow,  

DLR